Dewpoint
14 15 14 12 12 12 12 14 12 12 11 11 11 12 12 14 15 15 15 13 13 14
12 12 13 11 11 12 11 10 10 10 10 10 10 10 11 12 12 12 12 12 13 13
12 12 12 11 11 11 10 9 9 8 9 9 9 9 9 10 11 11 12 11 11 10
12 11 11 10 10 9 9 8 8 8 8 9 9 8 8 8 8 8 9 9 9 10
11 11 9 9 9 9 7 8 8 8 8 9 9 9 8 8 7 7 7 8 8 9
10 9 8 8 7 7 7 7 7 7 8 9 10 9 9 9 9 9 8 8 7 7
12 10 8 6 6 6 6 7 7 8 8 9 9 8 8 7 7 7 6 7 7 7
14 12 10 9 8 8 7 7 8 7 8 8 6 5 6 5 6 6 6 8 8 10
15 13 11 9 8 8 8 7 7 7 7 6 4 12 15 13 11 11 11 12 12 12
14 13 12 10 8 7 6 5 5 5 6 6 6 14 16 17 12 13 13 12 12 11
10 10 10 10 8 7 5 5 4 3 3 4 4 14 15 16 10 12 12 11 11 10
7 4 4 5 6 7 7 5 4 3 3 2 2 12 14 12 7 8 7 7 8 7
2 3 2 3 2 4 6 7 5 3 2 7 2 11 14 12 7 10 8 8 8 15
2 3 3 -0 -1 -1 3 7 6 6 6 4 4 3 12 14 6 7 7 7 6 6
Lifted_Index
21 21 21 21 21 21 21 21 21 21 21 21 21 21 22 22 22 22 23 23 23 23
21 21 21 21 21 21 21 21 21 20 20 21 21 21 22 22 22 22 22 23 23 23
21 21 21 21 21 21 21 21 20 20 20 21 21 21 22 22 22 22 22 23 23 23
21 21 21 21 21 21 21 21 21 21 21 21 21 22 22 22 22 22 23 23 23 23
21 21 20 20 20 21 21 21 22 22 22 22 22 22 22 23 23 23 23 23 24 24
20 20 20 20 21 21 22 22 23 23 23 23 23 23 23 24 24 24 24 24 24 24
20 20 20 21 21 22 22 23 23 23 24 24 24 24 24 24 24 24 24 24 24 24
21 21 21 21 22 23 23 23 24 24 24 24 25 24 24 24 24 24 24 24 24 24
21 21 21 22 22 23 23 24 24 24 24 24 24 24 24 23 23 23 23 23 23 23
21 21 22 22 23 23 23 23 23 23 24 24 24 23 23 22 22 22 22 21 21 20
21 21 22 22 22 22 22 22 22 22 22 22 22 22 21 20 20 20 19 19 19 18
21 21 21 21 21 21 21 21 20 20 20 20 20 20 19 18 18 18 17 17 17 17
20 20 19 19 19 19 19 19 18 18 18 18 18 18 17 17 16 16 16 16 17 16
19 19 19 18 18 18 18 18 17 17 17 17 17 17 17 16 16 16 16 16 16 16